Location: Unspecified
(0.0000°N, 0.0000°E)
Time: 21:25:54
(UTC+00:00)

Vanguard 2 Rocket - Visible Passes

Search period start: 21 February 2018 00:00
Search period end: 03 March 2018 00:00
Orbit: 555 x 3327 km, 32.9° (Epoch: 21 February)

Date Brightness Start Highest point End Pass type
(mag) Time Alt. Az. Time Alt. Az. Time Alt. Az.
21 Feb 10.6 02:20:49 22° NNE 02:21:45 22° NNE 02:35:24 10° ENE visible
21 Feb 10.1 04:26:38 13° NW 04:44:08 43° NNE 04:58:37 10° E visible
21 Feb 8.9 20:29:23 10° W 20:35:45 31° NNW 20:38:02 29° N visible
22 Feb 10.9 01:24:46 15° NE 01:24:46 15° NE 01:30:04 10° NE visible
22 Feb 10.3 03:30:35 23° NNW 03:41:20 35° NNE 03:56:41 10° E visible
22 Feb 9.5 05:41:13 10° NW 06:01:22 74° NE 06:14:39 10° ESE visible
22 Feb 8.2 19:29:51 10° W 19:35:24 42° NNW 19:42:18 17° NE visible
22 Feb 10.0 21:46:34 10° NW 21:48:08 13° NW 21:48:08 13° NW visible
23 Feb 10.4 02:34:36 26° N 02:38:10 28° NNE 02:53:24 10° ENE visible
23 Feb 9.8 04:40:26 13° NW 04:59:18 59° NNE 05:14:19 10° ESE visible
23 Feb 7.3 18:30:46 10° WSW 18:35:37 64° NNW 18:43:43 10° NE visible
23 Feb 9.5 20:45:54 10° WNW 20:51:26 20° NNW 20:52:24 20° N visible
24 Feb 10.7 01:38:41 21° NE 01:38:41 21° NE 01:48:36 10° ENE visible
24 Feb 10.1 03:44:31 25° NNW 03:56:47 46° NNE 04:13:03 10° E visible
24 Feb 9.0 19:45:45 10° WNW 19:50:46 24° NNW 19:56:38 14° NNE visible
25 Feb 10.2 02:48:39 32° N 02:53:57 36° NNE 03:10:37 10° E visible
25 Feb 9.6 04:54:30 13° NW 05:14:03 78° NE 05:29:23 10° ESE visible
25 Feb 8.3 18:46:04 10° W 18:50:38 32° NNW 18:57:36 10° NE visible
25 Feb 9.9 21:03:46 10° NNW 21:06:40 13° NNW 21:06:40 13° NNW visible
26 Feb 10.4 01:52:52 28° NE 01:52:52 28° NE 02:06:46 10° ENE visible
26 Feb 9.8 03:58:43 28° NW 04:11:45 61° NE 04:28:40 10° ESE visible
26 Feb 9.5 20:02:53 10° NW 20:06:27 14° NNW 20:10:51 10° NNE visible
27 Feb 10.9 00:57:07 15° NE 00:57:07 15° NE 01:01:15 10° ENE visible
27 Feb 9.9 03:02:57 40° N 03:09:10 48° NNE 03:26:57 10° ESE visible
27 Feb 9.5 05:08:48 12° WNW 05:28:32 81° SW 05:43:59 10° SE visible
27 Feb 9.0 19:02:23 10° WNW 19:05:59 17° NNW 19:10:45 10° NNE visible
28 Feb 10.2 02:07:15 37° NE 02:07:15 37° NE 02:24:01 10° E visible
28 Feb 9.5 04:13:06 30° NW 04:26:23 80° NE 04:43:40 10° ESE visible
01 Mar 10.7 01:11:34 22° ENE 01:11:34 22° ENE 01:19:34 10° E visible
01 Mar 9.7 03:17:25 49° NNW 03:23:57 64° NE 03:42:31 10° ESE visible
01 Mar 9.6 05:23:16 11° WNW 05:42:54 62° SW 05:58:13 10° SE visible
02 Mar 9.8 02:21:45 49° NE 02:21:45 49° NE 02:40:21 10° ESE visible
02 Mar 9.5 04:27:36 30° WNW 04:40:49 80° SW 04:58:12 10° SE visible
